This is the latest recevied weather packets stored in our database for station/object HB9FHL-13. If no packets are shown the sender has not sent any weather packets the latest 10 day(s).
| Time | Temp. | Humidity | Pressure | Rain* | Wind** | Luminosity | Snow |
|---|---|---|---|---|---|---|---|
| 1777785472 | 15.56° C | - | 1014.5 hPa | 0 mm | - | - | - |
| 1777785171 | 15.56° C | - | 1007 hPa | 0 mm | - | - | - |
| 1777784871 | 15.56° C | - | 1023.4 hPa | 0 mm | - | - | - |
| 1777784570 | 15.56° C | - | 1016.6 hPa | 0 mm | - | - | - |
| 1777784270 | 15.56° C | - | 1015.8 hPa | 0 mm | - | - | - |
| 1777783969 | 16.11° C | - | 1016.4 hPa | 0 mm | - | - | - |
| 1777783669 | 16.11° C | - | 1018.3 hPa | 0 mm | - | - | - |
| 1777783368 | 15° C | - | 1015.9 hPa | 0 mm | - | - | - |
| 1777783068 | 15° C | - | 1014.3 hPa | 0 mm | - | - | - |
| 1777782764 | 16.67° C | - | 1015.6 hPa | 0 mm | - | - | - |
| 1777782463 | 16.11° C | - | 1015 hPa | 0 mm | - | - | - |
| 1777782164 | 16.11° C | - | 1017.3 hPa | 0 mm | - | - | - |
| 1777781859 | 16.11° C | - | 1019.3 hPa | 0 mm | - | - | - |
| 1777781558 | 17.22° C | - | 1017.8 hPa | 0 mm | - | - | - |
| 1777781257 | 16.67° C | - | 1019.4 hPa | 0 mm | - | - | - |
| 1777780957 | 16.67° C | - | 1018.3 hPa | 0 mm | - | - | - |
| 1777780655 | 16.11° C | - | 1016.8 hPa | 0 mm | - | - | - |
| 1777780355 | 16.11° C | - | 1017.5 hPa | 0 mm | - | - | - |
| 1777780054 | 16.67° C | - | 1020.5 hPa | 0 mm | - | - | - |
| 1777779754 | 15.56° C | - | 1013.8 hPa | 0 mm | - | - | - |
| 1777779453 | 16.67° C | - | 1018.3 hPa | 0 mm | - | - | - |
| 1777779153 | 16.11° C | - | 1016.7 hPa | 0 mm | - | - | - |
| 1777778852 | 16.11° C | - | 1017.1 hPa | 0 mm | - | - | - |
| 1777778552 | 15.56° C | - | 1015.9 hPa | 0 mm | - | - | - |
| 1777778251 | 16.67° C | - | 1020.2 hPa | 0 mm | - | - | - |
* Rain since midnight (hover to see other rain measurements)
** Current wind speed in m/s (hover to see current wind gust speed)